Waseca, MN

11:45 AM CDT on August 21, 2017 (GMT -0500)
Waseca Municipal

Weather History for KACQ - February, 2013

Change the Weather History Date:

Thursday, February 7, 2013

  Actual Average Record
Temperature  
Mean Temperature 24 °F -  
Max Temperature 32 °F 21 °F 46 °F (1925)
Min Temperature 17 °F 1 °F -25 °F (1972)
Degree Days  
Heating Degree Days 40    
Moisture  
Dew Point 22 °F    
Average Humidity 91    
Maximum Humidity 100    
Minimum Humidity 80    
Precipitation  
Precipitation 0.00 in - - ()
Sea Level Pressure  
Sea Level Pressure 30.07 in    
Wind  
Wind Speed 8 mph (North)    
Max Wind Speed 17 mph    
Max Gust Speed 20 mph    
Visibility 4 miles    
Events Fog    
Averages and records for this station are not official NWS values.
T = Trace of Precipitation, MM = Missing Value Source: NWS Daily Summary

Daily Weather History Graph

Daily Weather History Graph

Search for Another Location

Airport or City:

Trip Planner

Search our weather history database for the weather conditions in past years. The results will help you decide how hot, cold, wet, or windy it might be!

Date:

Astronomy

Feb. 07, 2013 Rise Set
Actual Time 7:24 AM CST 5:33 PM CST
Civil Twilight 6:53 AM CST 6:03 PM CST
Nautical Twilight 6:19 AM CST 6:37 PM CST
Astronomical Twilight 5:46 AM CST 7:11 PM CST
Moon 5:07 AM CST (2/7) 2:55 PM CST (2/7)
Length of Visible Light 11h 09m
Length of Day
10h 09m
Waning Crescent, 9% of the Moon is Illuminated
Feb 7
Waning Crescent
Feb 10
New
Feb 17
First Quarter
Feb 25
Full
Mar 4
Last Quarter

Hourly Weather History & Observations

Time (CST) Temp. Windchill Dew Point Humidity Pressure Visibility Wind Dir Wind Speed Gust Speed Precip Events Conditions
12:14 AM 32.0 °F 25.6 °F 28.4 °F 87% 29.93 in 7.0 mi SSE 6.9 mph - N/A   Clear
12:35 AM 32.0 °F - 30.2 °F 93% 29.94 in 7.0 mi Calm Calm - N/A   Clear
12:54 AM 26.6 °F 22.6 °F 24.8 °F 93% 29.94 in 5.0 mi SE 3.5 mph - N/A   Clear
1:15 AM 30.2 °F - 28.4 °F 93% 29.94 in 5.0 mi Calm Calm - N/A   Clear
1:35 AM 28.4 °F 24.6 °F 26.6 °F 93% 29.94 in 4.0 mi NE 3.5 mph - N/A   Clear
1:54 AM 24.8 °F 20.5 °F 23.0 °F 93% 29.95 in 2.5 mi NE 3.5 mph - N/A   Clear
2:15 AM 24.8 °F 19.1 °F 23.0 °F 93% 29.96 in 1.8 mi NNE 4.6 mph - N/A   Mist
2:35 AM 23.0 °F - 21.2 °F 93% 29.96 in 1.5 mi Calm Calm - N/A   Mist
2:55 AM 24.8 °F - 23.0 °F 93% 29.96 in 0.5 mi Calm Calm - N/A Fog Light Freezing Fog
3:15 AM 21.2 °F - 21.2 °F 100% 29.95 in 0.2 mi Calm Calm - N/A Fog Light Freezing Fog
3:35 AM 21.2 °F 13.6 °F 21.2 °F 100% 29.95 in 0.2 mi North 5.8 mph - N/A Fog Light Freezing Fog
3:55 AM 24.8 °F 15.3 °F 23.0 °F 93% 29.96 in 0.5 mi North 9.2 mph - N/A Fog Light Freezing Fog
4:15 AM 24.8 °F 16.1 °F 23.0 °F 93% 29.96 in 0.8 mi North 8.1 mph - N/A   Overcast
4:35 AM 24.8 °F 16.1 °F 23.0 °F 93% 29.96 in 2.0 mi North 8.1 mph - N/A   Overcast
4:55 AM 24.8 °F 14.6 °F 23.0 °F 93% 29.96 in 2.5 mi North 10.4 mph - N/A   Overcast
5:15 AM 24.8 °F 16.9 °F 23.0 °F 93% 29.97 in 2.5 mi North 6.9 mph - N/A   Overcast
5:35 AM 23.0 °F 11.7 °F 21.2 °F 93% 29.97 in 2.5 mi North 11.5 mph - N/A   Overcast
6:15 AM 24.8 °F 13.4 °F 23.0 °F 93% 29.98 in 1.5 mi North 12.7 mph - N/A   Overcast
6:35 AM 24.8 °F 14.0 °F 23.0 °F 93% 29.98 in 1.5 mi North 11.5 mph - N/A   Overcast
6:55 AM 24.8 °F 14.0 °F 23.0 °F 93% 29.99 in 1.5 mi North 11.5 mph - N/A   Overcast
7:15 AM 24.8 °F 14.6 °F 23.0 °F 93% 29.99 in 1.8 mi North 10.4 mph - N/A   Overcast
7:35 AM 24.8 °F 14.6 °F 23.0 °F 93% 29.99 in 1.2 mi North 10.4 mph - N/A   Overcast
7:55 AM 24.8 °F 14.6 °F 23.0 °F 93% 30.00 in 1.5 mi North 10.4 mph - N/A   Overcast
8:15 AM 24.8 °F 15.3 °F 23.0 °F 93% 30.02 in 1.5 mi North 9.2 mph - N/A   Overcast
8:35 AM 24.8 °F 15.3 °F 23.0 °F 93% 30.04 in 1.5 mi North 9.2 mph - N/A   Overcast
8:55 AM 24.8 °F 14.6 °F 23.0 °F 93% 30.05 in 1.5 mi North 10.4 mph - N/A   Overcast
9:15 AM 24.8 °F 14.6 °F 23.0 °F 93% 30.05 in 1.2 mi North 10.4 mph - N/A   Overcast
9:35 AM 26.6 °F 16.2 °F 23.0 °F 86% 30.05 in 1.0 mi North 11.5 mph - N/A   Overcast
9:55 AM 26.6 °F 17.5 °F 24.8 °F 93% 30.05 in 0.8 mi North 9.2 mph - N/A   Overcast
10:15 AM 26.6 °F 16.2 °F 24.8 °F 93% 30.06 in 0.8 mi North 11.5 mph - N/A   Overcast
10:35 AM 24.8 °F 14.6 °F 23.0 °F 93% 30.06 in 0.8 mi North 10.4 mph - N/A   Overcast
10:55 AM 24.8 °F 14.0 °F 23.0 °F 93% 30.07 in 0.8 mi NNW 11.5 mph - N/A   Overcast
11:15 AM 24.8 °F 14.0 °F 23.0 °F 93% 30.06 in 0.8 mi North 11.5 mph - N/A   Overcast
11:35 AM 24.8 °F 14.6 °F 23.0 °F 93% 30.07 in 0.8 mi North 10.4 mph - N/A   Overcast
11:55 AM 24.8 °F 14.0 °F 23.0 °F 93% 30.06 in 0.8 mi NNW 11.5 mph - N/A   Overcast
12:15 PM 24.8 °F 12.9 °F 23.0 °F 93% 30.06 in 1.0 mi NNW 13.8 mph - N/A   Overcast
12:35 PM 24.8 °F 11.5 °F 23.0 °F 93% 30.07 in 1.2 mi NNW 17.3 mph - N/A   Overcast
12:55 PM 24.8 °F 12.9 °F 23.0 °F 93% 30.06 in 1.5 mi NNW 13.8 mph - N/A   Overcast
1:15 PM 24.8 °F 13.4 °F 23.0 °F 93% 30.06 in 1.5 mi North 12.7 mph - N/A   Overcast
1:35 PM 24.8 °F 12.4 °F 23.0 °F 93% 30.06 in 1.5 mi North 15.0 mph - N/A   Overcast
1:55 PM 24.8 °F 12.4 °F 23.0 °F 93% 30.06 in 1.8 mi North 15.0 mph - N/A   Overcast
2:15 PM 24.8 °F 14.0 °F 23.0 °F 93% 30.06 in 1.8 mi North 11.5 mph - N/A   Overcast
2:35 PM 24.8 °F 12.9 °F 23.0 °F 93% 30.07 in 2.0 mi North 13.8 mph - N/A   Overcast
2:55 PM 24.8 °F 11.9 °F 23.0 °F 93% 30.07 in 2.5 mi North 16.1 mph - N/A   Overcast
3:15 PM 24.8 °F 11.9 °F 23.0 °F 93% 30.08 in 3.0 mi North 16.1 mph - N/A   Overcast
3:35 PM 24.8 °F 13.4 °F 23.0 °F 93% 30.09 in 4.0 mi North 12.7 mph - N/A   Overcast
3:55 PM 24.8 °F 13.4 °F 23.0 °F 93% 30.09 in 5.0 mi North 12.7 mph - N/A   Overcast
4:15 PM 24.8 °F 13.4 °F 23.0 °F 93% 30.10 in 4.0 mi North 12.7 mph - N/A   Overcast
4:35 PM 24.8 °F 12.4 °F 23.0 °F 93% 30.11 in 3.0 mi NNW 15.0 mph - N/A   Overcast
4:55 PM 24.8 °F 13.4 °F 23.0 °F 93% 30.12 in 4.0 mi North 12.7 mph - N/A   Overcast
5:15 PM 24.8 °F 11.9 °F 23.0 °F 93% 30.13 in 7.0 mi North 16.1 mph 19.6 mph N/A   Overcast
5:35 PM 24.8 °F 12.4 °F 23.0 °F 93% 30.13 in 10.0 mi North 15.0 mph - N/A   Overcast
5:55 PM 24.8 °F 12.9 °F 21.2 °F 86% 30.14 in 10.0 mi North 13.8 mph - N/A   Overcast
6:15 PM 24.8 °F 14.0 °F 21.2 °F 86% 30.16 in 10.0 mi North 11.5 mph - N/A   Overcast
6:35 PM 24.8 °F 14.0 °F 21.2 °F 86% 30.17 in 10.0 mi NNW 11.5 mph - N/A   Overcast
6:55 PM 24.8 °F 14.0 °F 21.2 °F 86% 30.18 in 10.0 mi NNW 11.5 mph - N/A   Overcast
7:15 PM 24.8 °F 14.6 °F 21.2 °F 86% 30.18 in 10.0 mi NNW 10.4 mph - N/A   Overcast
7:35 PM 24.8 °F 14.6 °F 21.2 °F 86% 30.18 in 10.0 mi NNW 10.4 mph - N/A   Overcast
7:55 PM 24.8 °F 15.3 °F 21.2 °F 86% 30.19 in 10.0 mi NNW 9.2 mph - N/A   Overcast
8:15 PM 24.8 °F 14.0 °F 19.4 °F 80% 30.19 in 10.0 mi NNW 11.5 mph - N/A   Overcast
8:35 PM 24.8 °F 14.0 °F 19.4 °F 80% 30.19 in 10.0 mi NNW 11.5 mph - N/A   Overcast
8:55 PM 24.8 °F 12.9 °F 19.4 °F 80% 30.20 in 10.0 mi NNW 13.8 mph - N/A   Overcast
9:15 PM 23.0 °F 11.7 °F 19.4 °F 86% 30.20 in 10.0 mi NNW 11.5 mph - N/A   Overcast
9:35 PM 23.0 °F 12.4 °F 19.4 °F 86% 30.21 in 10.0 mi North 10.4 mph - N/A   Overcast
9:55 PM 21.2 °F 12.6 °F 17.6 °F 86% 30.21 in 10.0 mi North 6.9 mph - N/A   Overcast
10:15 PM 19.4 °F 11.5 °F 17.6 °F 93% 30.21 in 10.0 mi NNW 5.8 mph - N/A   Scattered Clouds
10:35 PM 19.4 °F 9.5 °F 15.8 °F 86% 30.22 in 10.0 mi NNW 8.1 mph - N/A   Scattered Clouds
10:54 PM 17.6 °F 7.3 °F 14.0 °F 86% 30.23 in 10.0 mi NNW 8.1 mph - N/A   Scattered Clouds
11:15 PM 17.6 °F 5.7 °F 14.0 °F 86% 30.23 in 10.0 mi NNW 10.4 mph - N/A   Scattered Clouds
11:35 PM 21.2 °F 10.9 °F 19.4 °F 93% 30.23 in 10.0 mi North 9.2 mph - N/A   Overcast
11:54 PM 21.2 °F 10.1 °F 19.4 °F 93% 30.23 in 10.0 mi North 10.4 mph - N/A   Overcast